Time,TemperatureF,DewpointF,PressureIn,WindDirection,WindDirectionDegrees,WindSpeedMPH,WindSpeedGustMPH,Humidity,HourlyPrecipIn,Conditions,Clouds,dailyrainin,SoftwareType,DateUTC
2014-02-15 00:01:00,27.0,21.9,29.71,WSW,248,0.4,4.0,81,0.00,,,0.00,WUHU216HW,2014-02-15 05:01:00,
2014-02-15 00:06:00,27.0,21.9,29.71,West,270,0.7,1.8,81,0.00,,,0.00,WUHU216HW,2014-02-15 05:06:00,
2014-02-15 00:11:00,26.8,21.7,29.72,SW,225,0.7,1.8,81,0.00,,,0.00,WUHU216HW,2014-02-15 05:11:00,
2014-02-15 00:16:00,26.8,21.7,29.72,WSW,248,0.9,1.8,81,0.00,,,0.00,WUHU216HW,2014-02-15 05:16:00,
2014-02-15 00:20:00,26.6,21.5,29.72,WSW,248,0.4,1.8,81,0.00,,,0.00,WUHU216HW,2014-02-15 05:20:00,
2014-02-15 00:25:00,26.5,21.3,29.72,West,270,0.2,1.6,81,0.00,,,0.00,WUHU216HW,2014-02-15 05:25:00,
2014-02-15 00:30:00,26.5,21.3,29.72,SSW,203,1.1,1.3,81,0.00,,,0.00,WUHU216HW,2014-02-15 05:30:00,
2014-02-15 00:35:00,26.5,21.3,29.74,SW,225,0.2,1.3,81,0.00,,,0.00,WUHU216HW,2014-02-15 05:35:00,
2014-02-15 00:40:00,26.3,21.3,29.74,WSW,248,0.2,1.3,81,0.00,,,0.00,WUHU216HW,2014-02-15 05:40:00,
2014-02-15 00:45:00,26.3,21.3,29.74,West,270,0.7,1.1,81,0.00,,,0.00,WUHU216HW,2014-02-15 05:45:00,
2014-02-15 00:50:00,26.1,20.8,29.74,WSW,248,1.1,1.1,80,0.00,,,0.00,WUHU216HW,2014-02-15 05:50:00,
2014-02-15 00:55:00,26.1,20.8,29.74,WSW,248,0.4,1.1,80,0.00,,,0.00,WUHU216HW,2014-02-15 05:55:00,
2014-02-15 01:00:00,25.9,20.6,29.74,West,270,0.4,1.1,80,0.00,,,0.00,WUHU216HW,2014-02-15 06:00:00,
2014-02-15 01:05:00,25.7,20.4,29.74,WSW,248,0.7,1.1,80,0.00,,,0.00,WUHU216HW,2014-02-15 06:05:00,
2014-02-15 01:10:00,25.9,20.6,29.74,SW,225,0.7,1.1,80,0.00,,,0.00,WUHU216HW,2014-02-15 06:10:00,
2014-02-15 01:15:00,25.7,20.4,29.74,WSW,248,1.1,1.3,80,0.00,,,0.00,WUHU216HW,2014-02-15 06:15:00,
2014-02-15 01:20:00,25.6,20.3,29.75,South,180,0.2,1.3,80,0.00,,,0.00,WUHU216HW,2014-02-15 06:20:00,
2014-02-15 01:25:00,25.6,20.3,29.75,WSW,248,0.0,1.3,80,0.00,,,0.00,WUHU216HW,2014-02-15 06:25:00,
2014-02-15 01:30:00,25.6,20.3,29.76,SW,225,0.2,1.1,80,0.00,,,0.00,WUHU216HW,2014-02-15 06:30:00,
2014-02-15 01:35:00,25.6,20.3,29.75,WSW,248,0.4,1.1,80,0.00,,,0.00,WUHU216HW,2014-02-15 06:35:00,
2014-02-15 01:40:00,25.4,20.3,29.75,WNW,293,0.0,1.1,81,0.00,,,0.00,WUHU216HW,2014-02-15 06:40:00,
2014-02-15 01:45:00,25.2,20.0,29.74,SSW,203,0.0,1.1,80,0.00,,,0.00,WUHU216HW,2014-02-15 06:45:00,
2014-02-15 01:50:00,25.0,19.8,29.75,SW,225,0.0,0.9,80,0.00,,,0.00,WUHU216HW,2014-02-15 06:50:00,
2014-02-15 01:55:00,25.0,19.8,29.74,West,270,0.0,0.4,80,0.00,,,0.00,WUHU216HW,2014-02-15 06:55:00,
2014-02-15 02:00:00,24.8,19.6,29.74,WNW,293,0.2,0.2,80,0.00,,,0.00,WUHU216HW,2014-02-15 07:00:00,
2014-02-15 02:05:00,24.5,19.3,29.74,North,0,0.0,0.4,80,0.00,,,0.00,WUHU216HW,2014-02-15 07:05:00,
2014-02-15 02:10:00,24.3,19.1,29.75,NNW,338,0.0,0.4,80,0.00,,,0.00,WUHU216HW,2014-02-15 07:10:00,
2014-02-15 02:15:00,23.9,18.7,29.76,ESE,113,0.0,0.2,80,0.00,,,0.00,WUHU216HW,2014-02-15 07:15:00,
2014-02-15 02:20:00,23.4,18.2,29.76,ESE,113,0.0,0.2,80,0.00,,,0.00,WUHU216HW,2014-02-15 07:20:00,
2014-02-15 02:25:00,23.0,17.8,29.77,East,90,0.0,0.0,80,0.00,,,0.00,WUHU216HW,2014-02-15 07:25:00,
2014-02-15 02:30:00,23.0,18.1,29.76,North,0,0.0,0.4,81,0.00,,,0.00,WUHU216HW,2014-02-15 07:30:00,
2014-02-15 02:35:00,22.9,18.2,29.77,NNW,338,0.4,0.4,82,0.00,,,0.00,WUHU216HW,2014-02-15 07:35:00,
2014-02-15 02:40:00,22.7,18.0,29.77,NNW,338,0.0,0.7,82,0.00,,,0.00,WUHU216HW,2014-02-15 07:40:00,
2014-02-15 02:45:00,22.7,18.0,29.77,WSW,248,0.0,0.7,82,0.00,,,0.00,WUHU216HW,2014-02-15 07:45:00,
2014-02-15 02:50:00,22.7,18.0,29.77,North,0,0.4,0.4,82,0.00,,,0.00,WUHU216HW,2014-02-15 07:50:00,
2014-02-15 02:55:00,22.7,18.0,29.78,NW,315,0.2,0.4,82,0.00,,,0.00,WUHU216HW,2014-02-15 07:55:00,
2014-02-15 03:00:00,22.5,17.8,29.78,North,0,0.0,0.4,82,0.00,,,0.00,WUHU216HW,2014-02-15 08:00:00,
2014-02-15 03:05:00,22.3,17.6,29.78,NNW,338,0.0,0.4,82,0.00,,,0.00,WUHU216HW,2014-02-15 08:05:00,
2014-02-15 03:10:00,22.3,17.6,29.79,WSW,248,0.4,0.9,82,0.00,,,0.00,WUHU216HW,2014-02-15 08:10:00,
2014-02-15 03:15:00,22.1,17.5,29.79,WSW,248,0.4,1.1,82,0.00,,,0.00,WUHU216HW,2014-02-15 08:15:00,
2014-02-15 03:20:00,22.0,17.3,29.79,SE,135,0.0,1.1,82,0.00,,,0.00,WUHU216HW,2014-02-15 08:20:00,
2014-02-15 03:25:00,22.0,17.3,29.79,ESE,113,0.0,0.4,82,0.00,,,0.00,WUHU216HW,2014-02-15 08:25:00,
2014-02-15 03:30:00,21.6,16.9,29.80,SW,225,0.0,0.4,82,0.00,,,0.00,WUHU216HW,2014-02-15 08:30:00,
2014-02-15 03:35:00,21.6,16.9,29.79,WSW,248,0.0,0.4,82,0.00,,,0.00,WUHU216HW,2014-02-15 08:35:00,
2014-02-15 03:40:00,21.4,16.7,29.80,East,90,0.0,0.4,82,0.00,,,0.00,WUHU216HW,2014-02-15 08:40:00,
2014-02-15 03:45:00,21.2,16.6,29.80,WSW,248,0.0,0.0,82,0.00,,,0.00,WUHU216HW,2014-02-15 08:45:00,
2014-02-15 03:50:00,21.2,16.6,29.80,WNW,293,0.0,0.4,82,0.00,,,0.00,WUHU216HW,2014-02-15 08:50:00,
2014-02-15 03:55:00,21.2,16.6,29.80,WNW,293,0.0,0.4,82,0.00,,,0.00,WUHU216HW,2014-02-15 08:55:00,
2014-02-15 04:00:00,21.6,16.9,29.80,NW,315,0.0,0.0,82,0.00,,,0.00,WUHU216HW,2014-02-15 09:00:00,
2014-02-15 04:05:00,21.8,17.1,29.79,NW,315,0.0,0.0,82,0.00,,,0.00,WUHU216HW,2014-02-15 09:05:00,
2014-02-15 04:10:00,21.8,17.1,29.79,NE,45,0.0,0.0,82,0.00,,,0.00,WUHU216HW,2014-02-15 09:10:00,
2014-02-15 04:15:00,22.0,17.3,29.79,NE,45,0.0,0.0,82,0.00,,,0.00,WUHU216HW,2014-02-15 09:15:00,
2014-02-15 04:20:00,21.8,17.1,29.78,NNE,23,0.0,0.0,82,0.00,,,0.00,WUHU216HW,2014-02-15 09:20:00,
2014-02-15 04:25:00,21.8,17.1,29.78,North,0,0.0,0.0,82,0.00,,,0.00,WUHU216HW,2014-02-15 09:25:00,
2014-02-15 04:30:00,21.8,17.4,29.78,NW,315,0.0,0.2,83,0.00,,,0.00,WUHU216HW,2014-02-15 09:30:00,
2014-02-15 04:35:00,21.8,17.4,29.79,WSW,248,0.0,0.2,83,0.00,,,0.00,WUHU216HW,2014-02-15 09:35:00,
2014-02-15 04:40:00,22.0,17.6,29.79,South,180,0.0,0.0,83,0.00,,,0.00,WUHU216HW,2014-02-15 09:40:00,
2014-02-15 04:45:00,22.0,17.3,29.80,WSW,248,0.0,0.4,82,0.00,,,0.00,WUHU216HW,2014-02-15 09:45:00,
2014-02-15 04:50:00,22.0,17.3,29.80,SW,225,0.0,0.7,82,0.00,,,0.00,WUHU216HW,2014-02-15 09:50:00,
2014-02-15 04:55:00,22.0,17.3,29.80,NNE,23,0.0,0.7,82,0.00,,,0.00,WUHU216HW,2014-02-15 09:55:00,
2014-02-15 05:00:00,22.0,17.6,29.80,WNW,293,0.2,0.4,83,0.00,,,0.00,WUHU216HW,2014-02-15 10:00:00,
2014-02-15 05:05:00,22.0,17.6,29.80,NW,315,0.0,0.4,83,0.00,,,0.00,WUHU216HW,2014-02-15 10:05:00,
2014-02-15 05:10:00,22.0,17.6,29.80,NW,315,0.0,0.4,83,0.00,,,0.00,WUHU216HW,2014-02-15 10:10:00,
2014-02-15 05:15:00,22.0,17.6,29.80,WNW,293,0.0,0.0,83,0.00,,,0.00,WUHU216HW,2014-02-15 10:15:00,
2014-02-15 05:20:00,22.0,17.6,29.80,NNW,338,0.4,0.4,83,0.00,,,0.00,WUHU216HW,2014-02-15 10:20:00,
2014-02-15 05:24:00,22.0,17.6,29.80,NW,315,0.4,0.7,83,0.00,,,0.00,WUHU216HW,2014-02-15 10:24:00,
2014-02-15 05:25:00,22.0,17.6,29.80,NW,315,0.0,0.7,83,0.00,,,0.00,WUHU216HW,2014-02-15 10:25:00,
2014-02-15 05:28:00,22.0,17.6,29.80,NW,315,0.0,0.7,83,0.00,,,0.00,WUHU216HW,2014-02-15 10:28:00,
2014-02-15 05:29:00,21.8,17.4,29.80,NW,315,0.0,0.7,83,0.00,,,0.00,WUHU216HW,2014-02-15 10:29:00,
2014-02-15 05:30:00,21.8,17.4,29.80,NW,315,0.0,0.7,83,0.00,,,0.00,WUHU216HW,2014-02-15 10:30:00,
2014-02-15 05:31:00,21.8,17.4,29.80,NW,315,0.0,0.7,83,0.00,,,0.00,WUHU216HW,2014-02-15 10:31:00,
2014-02-15 05:34:00,21.8,17.4,29.80,NW,315,0.0,0.4,83,0.00,,,0.00,WUHU216HW,2014-02-15 10:34:00,
2014-02-15 05:37:00,21.8,17.4,29.81,WSW,248,0.0,0.0,83,0.00,,,0.00,WUHU216HW,2014-02-15 10:37:00,
2014-02-15 05:40:00,21.8,17.4,29.81,WSW,248,0.0,0.2,83,0.00,,,0.00,WUHU216HW,2014-02-15 10:40:00,
2014-02-15 05:42:00,22.0,17.6,29.81,WSW,248,0.0,0.2,83,0.00,,,0.00,WUHU216HW,2014-02-15 10:42:00,
2014-02-15 05:43:00,22.0,17.6,29.82,WSW,248,0.0,0.2,83,0.00,,,0.00,WUHU216HW,2014-02-15 10:43:00,
2014-02-15 05:47:00,22.0,17.6,29.82,WSW,248,0.0,0.2,83,0.00,,,0.00,WUHU216HW,2014-02-15 10:47:00,
2014-02-15 05:50:00,21.8,17.4,29.82,WSW,248,0.0,0.0,83,0.00,,,0.00,WUHU216HW,2014-02-15 10:50:00,
2014-02-15 05:52:00,21.8,17.4,29.82,West,270,0.0,0.0,83,0.00,,,0.00,WUHU216HW,2014-02-15 10:52:00,
2014-02-15 05:55:00,22.0,17.6,29.82,NW,315,0.0,0.0,83,0.00,,,0.00,WUHU216HW,2014-02-15 10:55:00,
2014-02-15 05:56:00,21.8,17.4,29.82,NW,315,0.0,0.0,83,0.00,,,0.00,WUHU216HW,2014-02-15 10:56:00,
2014-02-15 05:57:00,21.8,17.4,29.82,NW,315,0.0,0.0,83,0.00,,,0.00,WUHU216HW,2014-02-15 10:57:00,
2014-02-15 05:59:00,21.8,17.4,29.82,NW,315,0.0,0.0,83,0.00,,,0.00,WUHU216HW,2014-02-15 10:59:00,
2014-02-15 06:01:00,21.8,17.4,29.82,NW,315,0.0,0.0,83,0.00,,,0.00,WUHU216HW,2014-02-15 11:01:00,
2014-02-15 06:06:00,21.8,17.4,29.82,WNW,293,0.0,0.0,83,0.00,,,0.00,WUHU216HW,2014-02-15 11:06:00,
2014-02-15 06:07:00,21.8,17.4,29.82,WNW,293,0.0,0.0,83,0.00,,,0.00,WUHU216HW,2014-02-15 11:07:00,
2014-02-15 06:09:00,21.6,17.2,29.82,NW,315,0.0,0.0,83,0.00,,,0.00,WUHU216HW,2014-02-15 11:09:00,
2014-02-15 06:14:00,21.4,17.0,29.81,NW,315,0.0,0.0,83,0.00,,,0.00,WUHU216HW,2014-02-15 11:14:00,
2014-02-15 06:15:00,21.4,17.0,29.81,NW,315,0.0,0.0,83,0.00,,,0.00,WUHU216HW,2014-02-15 11:15:00,
2014-02-15 06:19:00,21.2,16.8,29.82,NW,315,0.0,0.0,83,0.00,,,0.00,WUHU216HW,2014-02-15 11:19:00,
2014-02-15 06:20:00,21.2,16.8,29.81,NNW,338,0.0,0.0,83,0.00,,,0.00,WUHU216HW,2014-02-15 11:20:00,
2014-02-15 06:24:00,21.2,16.8,29.81,NW,315,0.2,0.4,83,0.00,,,0.00,WUHU216HW,2014-02-15 11:24:00,
2014-02-15 06:25:00,21.2,16.8,29.81,WNW,293,0.0,0.4,83,0.00,,,0.00,WUHU216HW,2014-02-15 11:25:00,
2014-02-15 06:28:00,21.2,16.8,29.82,SW,225,0.0,0.4,83,0.00,,,0.00,WUHU216HW,2014-02-15 11:28:00,
2014-02-15 06:31:00,21.2,16.8,29.82,WSW,248,0.0,0.4,83,0.00,,,0.00,WUHU216HW,2014-02-15 11:31:00,
2014-02-15 06:33:00,21.2,16.8,29.82,SW,225,0.0,0.4,83,0.00,,,0.00,WUHU216HW,2014-02-15 11:33:00,
2014-02-15 06:38:00,21.2,16.6,29.82,SW,225,0.0,0.2,82,0.00,,,0.00,WUHU216HW,2014-02-15 11:38:00,
2014-02-15 06:42:00,21.1,16.4,29.82,SW,225,0.0,0.2,82,0.00,,,0.00,WUHU216HW,2014-02-15 11:42:00,
2014-02-15 06:45:00,20.9,16.2,29.82,SW,225,0.0,0.2,82,0.00,,,0.00,WUHU216HW,2014-02-15 11:45:00,
2014-02-15 06:46:00,20.9,16.2,29.82,SW,225,0.0,0.2,82,0.00,,,0.00,WUHU216HW,2014-02-15 11:46:00,
2014-02-15 06:47:00,21.1,16.4,29.82,SW,225,0.0,0.0,82,0.00,,,0.00,WUHU216HW,2014-02-15 11:47:00,
2014-02-15 06:49:00,20.9,16.2,29.82,SW,225,0.0,0.0,82,0.00,,,0.00,WUHU216HW,2014-02-15 11:49:00,
2014-02-15 06:54:00,21.1,16.4,29.83,WSW,248,0.0,0.0,82,0.00,,,0.00,WUHU216HW,2014-02-15 11:54:00,
2014-02-15 06:59:00,20.9,16.2,29.83,WSW,248,0.0,0.0,82,0.00,,,0.00,WUHU216HW,2014-02-15 11:59:00,
2014-02-15 07:03:00,20.9,16.2,29.83,WSW,248,0.0,0.0,82,0.00,,,0.00,WUHU216HW,2014-02-15 12:03:00,
2014-02-15 07:06:00,20.9,16.2,29.83,WSW,248,0.0,0.0,82,0.00,,,0.00,WUHU216HW,2014-02-15 12:06:00,
2014-02-15 07:07:00,20.9,16.2,29.83,WSW,248,0.0,0.0,82,0.00,,,0.00,WUHU216HW,2014-02-15 12:07:00,
2014-02-15 07:10:00,20.9,16.2,29.83,WSW,248,0.0,0.0,82,0.00,,,0.00,WUHU216HW,2014-02-15 12:10:00,
2014-02-15 07:11:00,20.9,16.2,29.83,WSW,248,0.0,0.0,82,0.00,,,0.00,WUHU216HW,2014-02-15 12:11:00,
2014-02-15 07:12:00,20.9,16.2,29.83,WSW,248,0.0,0.0,82,0.00,,,0.00,WUHU216HW,2014-02-15 12:12:00,
2014-02-15 07:14:00,20.9,16.2,29.83,WSW,248,0.0,0.0,82,0.00,,,0.00,WUHU216HW,2014-02-15 12:14:00,
2014-02-15 07:16:00,20.9,16.2,29.83,WSW,248,0.0,0.0,82,0.00,,,0.00,WUHU216HW,2014-02-15 12:16:00,
2014-02-15 07:21:00,21.1,16.4,29.83,WSW,248,0.0,0.0,82,0.00,,,0.00,WUHU216HW,2014-02-15 12:21:00,
2014-02-15 07:22:00,21.1,16.4,29.83,WSW,248,0.0,0.0,82,0.00,,,0.00,WUHU216HW,2014-02-15 12:22:00,
2014-02-15 07:24:00,21.1,16.4,29.83,WSW,248,0.0,0.0,82,0.00,,,0.00,WUHU216HW,2014-02-15 12:24:00,
2014-02-15 07:29:00,21.2,16.6,29.83,NNW,338,0.0,0.0,82,0.00,,,0.00,WUHU216HW,2014-02-15 12:29:00,
2014-02-15 07:30:00,21.2,16.6,29.83,NNW,338,0.0,0.0,82,0.00,,,0.00,WUHU216HW,2014-02-15 12:30:00,
2014-02-15 07:33:00,21.2,16.6,29.83,NNW,338,0.0,0.2,82,0.00,,,0.00,WUHU216HW,2014-02-15 12:33:00,
2014-02-15 07:37:00,21.2,16.6,29.83,NNW,338,0.0,0.2,82,0.00,,,0.00,WUHU216HW,2014-02-15 12:37:00,
2014-02-15 07:39:00,21.2,16.6,29.83,NNW,338,0.0,0.2,82,0.00,,,0.00,WUHU216HW,2014-02-15 12:39:00,
2014-02-15 07:40:00,21.2,16.6,29.83,NNW,338,0.0,0.2,82,0.00,,,0.00,WUHU216HW,2014-02-15 12:40:00,
2014-02-15 07:44:00,21.2,16.6,29.82,NNW,338,0.0,0.0,82,0.00,,,0.00,WUHU216HW,2014-02-15 12:44:00,
2014-02-15 07:45:00,21.2,16.8,29.82,NNW,338,0.0,0.0,83,0.00,,,0.00,WUHU216HW,2014-02-15 12:45:00,
2014-02-15 07:47:00,21.2,16.8,29.82,NNW,338,0.0,0.0,83,0.00,,,0.00,WUHU216HW,2014-02-15 12:47:00,
2014-02-15 07:49:00,21.2,16.8,29.82,NW,315,0.0,0.0,83,0.00,,,0.00,WUHU216HW,2014-02-15 12:49:00,
2014-02-15 07:51:00,21.4,17.0,29.83,NW,315,0.0,0.0,83,0.00,,,0.00,WUHU216HW,2014-02-15 12:51:00,
2014-02-15 07:55:00,21.8,17.4,29.83,NW,315,0.0,0.0,83,0.00,,,0.00,WUHU216HW,2014-02-15 12:55:00,
2014-02-15 08:00:00,22.1,17.7,29.83,NW,315,0.0,0.0,83,0.00,,,0.00,WUHU216HW,2014-02-15 13:00:00,
2014-02-15 08:02:00,22.3,17.9,29.83,NW,315,0.0,0.0,83,0.00,,,0.00,WUHU216HW,2014-02-15 13:02:00,
2014-02-15 08:03:00,22.3,17.9,29.83,NW,315,0.0,0.0,83,0.00,,,0.00,WUHU216HW,2014-02-15 13:03:00,
2014-02-15 08:05:00,22.3,17.9,29.84,West,270,0.0,0.0,83,0.00,,,0.00,WUHU216HW,2014-02-15 13:05:00,
2014-02-15 08:07:00,22.5,18.1,29.83,West,270,0.0,0.0,83,0.00,,,0.00,WUHU216HW,2014-02-15 13:07:00,
2014-02-15 08:08:00,22.5,18.1,29.83,West,270,0.0,0.0,83,0.00,,,0.00,WUHU216HW,2014-02-15 13:08:00,
2014-02-15 08:10:00,22.5,18.1,29.83,NNW,338,0.0,0.0,83,0.00,,,0.00,WUHU216HW,2014-02-15 13:10:00,
2014-02-15 08:11:00,22.5,18.1,29.83,NNW,338,0.0,0.0,83,0.00,,,0.00,WUHU216HW,2014-02-15 13:11:00,
2014-02-15 08:16:00,22.7,18.3,29.83,North,0,0.0,0.0,83,0.00,,,0.00,WUHU216HW,2014-02-15 13:16:00,
2014-02-15 08:19:00,22.9,18.5,29.83,North,0,0.0,0.0,83,0.00,,,0.00,WUHU216HW,2014-02-15 13:19:00,
2014-02-15 08:21:00,23.0,18.6,29.83,North,0,0.0,0.0,83,0.00,,,0.00,WUHU216HW,2014-02-15 13:21:00,
2014-02-15 08:22:00,23.2,18.8,29.83,North,0,0.0,0.0,83,0.00,,,0.00,WUHU216HW,2014-02-15 13:22:00,
2014-02-15 08:27:00,23.6,19.2,29.84,SW,225,0.0,0.0,83,0.00,,,0.00,WUHU216HW,2014-02-15 13:27:00,
2014-02-15 08:28:00,23.6,19.2,29.84,SW,225,0.0,0.0,83,0.00,,,0.00,WUHU216HW,2014-02-15 13:28:00,
2014-02-15 08:29:00,23.8,19.4,29.84,SW,225,0.0,0.0,83,0.00,,,0.00,WUHU216HW,2014-02-15 13:29:00,
2014-02-15 08:30:00,23.8,19.4,29.84,SW,225,0.0,0.0,83,0.00,,,0.00,WUHU216HW,2014-02-15 13:30:00,
2014-02-15 08:34:00,24.3,19.9,29.84,WSW,248,0.0,0.0,83,0.00,,,0.00,WUHU216HW,2014-02-15 13:34:00,
2014-02-15 08:36:00,24.5,20.1,29.84,WSW,248,0.0,0.0,83,0.00,,,0.00,WUHU216HW,2014-02-15 13:36:00,
2014-02-15 08:38:00,24.7,20.3,29.84,WSW,248,0.0,0.0,83,0.00,,,0.00,WUHU216HW,2014-02-15 13:38:00,
2014-02-15 08:39:00,24.8,20.4,29.85,WSW,248,0.0,0.0,83,0.00,,,0.00,WUHU216HW,2014-02-15 13:39:00,
2014-02-15 08:41:00,24.8,20.4,29.85,WSW,248,0.0,0.0,83,0.00,,,0.00,WUHU216HW,2014-02-15 13:41:00,
2014-02-15 08:45:00,25.2,20.8,29.85,WSW,248,0.2,0.2,83,0.00,,,0.00,WUHU216HW,2014-02-15 13:45:00,
2014-02-15 08:47:00,25.6,21.1,29.85,WSW,248,0.0,0.2,83,0.00,,,0.00,WUHU216HW,2014-02-15 13:47:00,
2014-02-15 08:48:00,25.6,21.1,29.85,WSW,248,0.0,0.2,83,0.00,,,0.00,WUHU216HW,2014-02-15 13:48:00,
2014-02-15 08:50:00,25.7,21.2,29.85,WSW,248,0.0,0.2,83,0.00,,,0.00,WUHU216HW,2014-02-15 13:50:00,
2014-02-15 08:52:00,25.9,21.4,29.85,SW,225,0.0,0.2,83,0.00,,,0.00,WUHU216HW,2014-02-15 13:52:00,
2014-02-15 08:55:00,26.1,21.3,29.85,SW,225,0.0,0.0,82,0.00,,,0.00,WUHU216HW,2014-02-15 13:55:00,
2014-02-15 08:57:00,26.3,21.8,29.85,SW,225,0.0,0.0,83,0.00,,,0.00,WUHU216HW,2014-02-15 13:57:00,
2014-02-15 09:00:00,26.3,21.8,29.85,SW,225,0.0,0.0,83,0.00,,,0.00,WUHU216HW,2014-02-15 14:00:00,
2014-02-15 09:03:00,26.3,21.8,29.85,SW,225,0.0,0.0,83,0.00,,,0.00,WUHU216HW,2014-02-15 14:03:00,
2014-02-15 09:05:00,26.5,22.0,29.85,SW,225,0.0,0.0,83,0.00,,,0.00,WUHU216HW,2014-02-15 14:05:00,
2014-02-15 09:06:00,26.6,22.2,29.85,SW,225,0.0,0.0,83,0.00,,,0.00,WUHU216HW,2014-02-15 14:06:00,
2014-02-15 09:08:00,26.6,22.2,29.84,SW,225,0.0,0.0,83,0.00,,,0.00,WUHU216HW,2014-02-15 14:08:00,
2014-02-15 09:13:00,27.0,22.5,29.85,SW,225,0.0,0.0,83,0.00,,,0.00,WUHU216HW,2014-02-15 14:13:00,
2014-02-15 09:15:00,27.2,22.7,29.85,SW,225,0.0,0.0,83,0.00,,,0.00,WUHU216HW,2014-02-15 14:15:00,
2014-02-15 09:16:00,27.4,22.9,29.85,SW,225,0.0,0.0,83,0.00,,,0.00,WUHU216HW,2014-02-15 14:16:00,
2014-02-15 09:18:00,27.4,22.9,29.85,SW,225,0.0,0.0,83,0.00,,,0.00,WUHU216HW,2014-02-15 14:18:00,
2014-02-15 09:22:00,27.7,23.2,29.85,WNW,293,0.0,0.0,83,0.00,,,0.00,WUHU216HW,2014-02-15 14:22:00,
2014-02-15 09:25:00,27.9,23.4,29.85,NW,315,0.0,0.2,83,0.00,,,0.00,WUHU216HW,2014-02-15 14:25:00,
2014-02-15 09:28:00,27.9,23.4,29.85,WNW,293,0.0,0.2,83,0.00,,,0.00,WUHU216HW,2014-02-15 14:28:00,
2014-02-15 09:33:00,28.1,23.6,29.85,NNW,338,0.0,0.2,83,0.00,,,0.00,WUHU216HW,2014-02-15 14:33:00,
2014-02-15 09:38:00,28.3,23.8,29.85,WNW,293,0.0,0.2,83,0.00,,,0.00,WUHU216HW,2014-02-15 14:38:00,
2014-02-15 09:40:00,28.3,23.8,29.85,West,270,0.0,0.2,83,0.00,,,0.00,WUHU216HW,2014-02-15 14:40:00,
2014-02-15 09:43:00,28.4,24.0,29.85,West,270,0.0,0.2,83,0.00,,,0.00,WUHU216HW,2014-02-15 14:43:00,
2014-02-15 09:46:00,28.6,24.1,29.86,SW,225,0.0,0.0,83,0.00,,,0.00,WUHU216HW,2014-02-15 14:46:00,
2014-02-15 09:49:00,28.8,23.9,29.85,SSE,158,0.4,0.4,82,0.00,,,0.00,WUHU216HW,2014-02-15 14:49:00,
2014-02-15 09:51:00,29.0,24.1,29.85,SSE,158,0.0,0.4,82,0.00,,,0.00,WUHU216HW,2014-02-15 14:51:00,
2014-02-15 09:56:00,29.2,24.3,29.85,ENE,68,0.0,0.4,82,0.00,,,0.00,WUHU216HW,2014-02-15 14:56:00,
2014-02-15 09:58:00,29.2,24.3,29.85,ENE,68,0.0,0.4,82,0.00,,,0.00,WUHU216HW,2014-02-15 14:58:00,
2014-02-15 09:59:00,29.3,24.5,29.85,ENE,68,0.0,0.4,82,0.00,,,0.00,WUHU216HW,2014-02-15 14:59:00,
2014-02-15 10:01:00,29.5,24.7,29.84,ENE,68,0.2,0.2,82,0.00,,,0.00,WUHU216HW,2014-02-15 15:01:00,
2014-02-15 10:03:00,29.5,24.7,29.84,ENE,68,0.0,0.2,82,0.00,,,0.00,WUHU216HW,2014-02-15 15:03:00,
2014-02-15 10:08:00,29.9,24.8,29.84,ENE,68,0.0,0.2,81,0.00,,,0.00,WUHU216HW,2014-02-15 15:08:00,
2014-02-15 10:11:00,29.9,24.8,29.85,ENE,68,0.2,0.4,81,0.00,,,0.00,WUHU216HW,2014-02-15 15:11:00,
2014-02-15 10:12:00,29.9,24.8,29.85,ENE,68,0.2,0.4,81,0.00,,,0.00,WUHU216HW,2014-02-15 15:12:00,
2014-02-15 10:16:00,29.9,24.8,29.84,NE,45,0.2,0.4,81,0.00,,,0.00,WUHU216HW,2014-02-15 15:16:00,
2014-02-15 10:21:00,30.1,24.9,29.85,ENE,68,0.0,0.4,81,0.00,,,0.00,WUHU216HW,2014-02-15 15:21:00,
2014-02-15 10:23:00,30.2,25.1,29.85,ENE,68,0.0,0.4,81,0.00,,,0.00,WUHU216HW,2014-02-15 15:23:00,
2014-02-15 10:28:00,30.8,25.7,29.85,ENE,68,0.4,0.4,81,0.00,,,0.00,WUHU216HW,2014-02-15 15:28:00,
2014-02-15 10:31:00,31.1,26.0,29.85,ENE,68,0.0,0.4,81,0.00,,,0.00,WUHU216HW,2014-02-15 15:31:00,
2014-02-15 10:32:00,31.1,26.0,29.85,ENE,68,0.0,0.4,81,0.00,,,0.00,WUHU216HW,2014-02-15 15:32:00,
2014-02-15 10:34:00,31.3,25.9,29.85,NE,45,0.0,0.4,80,0.00,,,0.00,WUHU216HW,2014-02-15 15:34:00,
2014-02-15 10:35:00,31.7,26.3,29.85,ESE,113,0.2,0.4,80,0.00,,,0.00,WUHU216HW,2014-02-15 15:35:00,
2014-02-15 10:36:00,31.7,26.3,29.85,ESE,113,0.4,0.4,80,0.00,,,0.00,WUHU216HW,2014-02-15 15:36:00,
2014-02-15 10:39:00,31.9,26.1,29.86,ESE,113,0.0,0.4,79,0.00,,,0.00,WUHU216HW,2014-02-15 15:39:00,
2014-02-15 10:43:00,32.0,26.6,29.85,NW,315,0.0,0.4,80,0.00,,,0.00,WUHU216HW,2014-02-15 15:43:00,
2014-02-15 10:44:00,32.0,26.6,29.85,WSW,248,0.4,0.4,80,0.00,,,0.00,WUHU216HW,2014-02-15 15:44:00,
2014-02-15 10:46:00,32.4,27.0,29.85,SW,225,0.0,0.4,80,0.00,,,0.00,WUHU216HW,2014-02-15 15:46:00,
2014-02-15 10:48:00,32.6,27.1,29.85,SW,225,0.4,0.4,80,0.00,,,0.00,WUHU216HW,2014-02-15 15:48:00,
2014-02-15 10:49:00,32.6,27.1,29.85,SW,225,0.4,0.7,80,0.00,,,0.00,WUHU216HW,2014-02-15 15:49:00,
2014-02-15 10:52:00,32.8,27.0,29.85,SSW,203,0.0,1.1,79,0.00,,,0.00,WUHU216HW,2014-02-15 15:52:00,
2014-02-15 10:53:00,32.8,27.0,29.86,WSW,248,0.4,1.1,79,0.00,,,0.00,WUHU216HW,2014-02-15 15:53:00,
2014-02-15 10:55:00,32.9,27.1,29.86,SE,135,0.0,1.1,79,0.00,,,0.00,WUHU216HW,2014-02-15 15:55:00,
2014-02-15 10:57:00,33.1,27.3,29.86,SSW,203,1.6,1.6,79,0.00,,,0.00,WUHU216HW,2014-02-15 15:57:00,
2014-02-15 10:59:00,33.1,27.3,29.86,SSE,158,0.2,1.6,79,0.00,,,0.00,WUHU216HW,2014-02-15 15:59:00,
2014-02-15 11:00:00,33.3,27.5,29.86,SSW,203,0.7,1.6,79,0.00,,,0.00,WUHU216HW,2014-02-15 16:00:00,
2014-02-15 11:05:00,33.5,27.3,29.86,NW,315,0.0,1.6,78,0.00,,,0.00,WUHU216HW,2014-02-15 16:05:00,
2014-02-15 11:06:00,33.5,27.3,29.86,West,270,0.0,1.6,78,0.00,,,0.00,WUHU216HW,2014-02-15 16:06:00,
2014-02-15 11:09:00,33.7,27.5,29.86,West,270,0.4,0.7,78,0.00,,,0.00,WUHU216HW,2014-02-15 16:09:00,
2014-02-15 11:10:00,33.8,27.6,29.86,WSW,248,0.2,0.7,78,0.00,,,0.00,WUHU216HW,2014-02-15 16:10:00,
2014-02-15 11:12:00,34.0,27.8,29.86,NW,315,1.1,1.3,78,0.00,,,0.00,WUHU216HW,2014-02-15 16:12:00,
2014-02-15 11:15:00,34.2,27.6,29.85,WNW,293,0.2,1.3,77,0.00,,,0.00,WUHU216HW,2014-02-15 16:15:00,
2014-02-15 11:19:00,34.4,27.6,29.85,SSW,203,0.0,1.3,76,0.00,,,0.00,WUHU216HW,2014-02-15 16:19:00,
2014-02-15 11:20:00,34.4,27.6,29.85,SSE,158,0.0,1.3,76,0.00,,,0.00,WUHU216HW,2014-02-15 16:20:00,
2014-02-15 11:22:00,34.4,27.6,29.85,SW,225,0.0,1.1,76,0.00,,,0.00,WUHU216HW,2014-02-15 16:22:00,
2014-02-15 11:25:00,34.6,26.7,29.84,NW,315,0.0,0.4,73,0.00,,,0.00,WUHU216HW,2014-02-15 16:25:00,
2014-02-15 11:27:00,34.4,26.8,29.84,NW,315,0.4,0.4,74,0.00,,,0.00,WUHU216HW,2014-02-15 16:27:00,
2014-02-15 11:29:00,34.4,26.8,29.84,WSW,248,0.7,0.7,74,0.00,,,0.00,WUHU216HW,2014-02-15 16:29:00,
2014-02-15 11:30:00,34.6,27.0,29.84,West,270,0.0,0.7,74,0.00,,,0.00,WUHU216HW,2014-02-15 16:30:00,
2014-02-15 11:33:00,34.6,27.0,29.84,NNW,338,0.0,0.7,74,0.00,,,0.00,WUHU216HW,2014-02-15 16:33:00,
2014-02-15 11:38:00,34.4,26.6,29.84,NW,315,1.1,1.1,73,0.00,,,0.00,WUHU216HW,2014-02-15 16:38:00,
2014-02-15 11:39:00,34.4,26.6,29.84,WNW,293,0.4,1.1,73,0.00,,,0.00,WUHU216HW,2014-02-15 16:39:00,
2014-02-15 11:41:00,34.4,26.6,29.84,NW,315,0.7,1.1,73,0.00,,,0.00,WUHU216HW,2014-02-15 16:41:00,
2014-02-15 11:42:00,34.6,26.7,29.84,NW,315,0.0,1.1,73,0.00,,,0.00,WUHU216HW,2014-02-15 16:42:00,
2014-02-15 11:43:00,34.6,26.7,29.84,NNW,338,0.4,1.1,73,0.00,,,0.00,WUHU216HW,2014-02-15 16:43:00,
2014-02-15 11:44:00,34.6,26.7,29.84,NNW,338,0.4,1.1,73,0.00,,,0.00,WUHU216HW,2014-02-15 16:44:00,
2014-02-15 11:45:00,34.6,26.7,29.84,North,0,0.4,1.1,73,0.00,,,0.00,WUHU216HW,2014-02-15 16:45:00,
2014-02-15 11:49:00,34.6,26.7,29.84,North,0,0.0,0.7,73,0.00,,,0.00,WUHU216HW,2014-02-15 16:49:00,
2014-02-15 11:50:00,34.6,26.7,29.84,North,0,0.0,0.7,73,0.00,,,0.00,WUHU216HW,2014-02-15 16:50:00,
2014-02-15 11:54:00,34.7,27.2,29.84,NE,45,0.4,0.9,74,0.00,,,0.00,WUHU216HW,2014-02-15 16:54:00,
2014-02-15 11:59:00,34.6,26.7,29.83,NE,45,0.9,0.9,73,0.00,,,0.00,WUHU216HW,2014-02-15 16:59:00,
2014-02-15 12:04:00,34.4,26.6,29.83,NE,45,0.4,1.1,73,0.00,,,0.00,WUHU216HW,2014-02-15 17:04:00,
2014-02-15 12:09:00,34.4,26.6,29.82,NNE,23,0.9,1.1,73,0.00,,,0.00,WUHU216HW,2014-02-15 17:09:00,
2014-02-15 12:14:00,34.2,26.4,29.82,North,0,0.2,1.1,73,0.00,,,0.00,WUHU216HW,2014-02-15 17:14:00,
2014-02-15 12:19:00,34.2,26.6,29.81,NNE,23,0.2,1.1,74,0.00,,,0.00,WUHU216HW,2014-02-15 17:19:00,
2014-02-15 12:24:00,34.2,26.0,29.81,ENE,68,1.1,1.6,72,0.00,,,0.00,WUHU216HW,2014-02-15 17:24:00,
2014-02-15 12:29:00,34.0,26.2,29.81,NNE,23,0.4,1.6,73,0.00,,,0.00,WUHU216HW,2014-02-15 17:29:00,
2014-02-15 12:34:00,34.0,26.2,29.81,NNE,23,0.2,1.1,73,0.00,,,0.00,WUHU216HW,2014-02-15 17:34:00,
2014-02-15 12:39:00,34.0,26.2,29.81,ENE,68,0.0,0.4,73,0.00,,,0.00,WUHU216HW,2014-02-15 17:39:00,
2014-02-15 12:44:00,34.0,26.2,29.81,NNE,23,0.4,0.9,73,0.00,,,0.00,WUHU216HW,2014-02-15 17:44:00,
2014-02-15 12:49:00,33.8,26.0,29.80,NNE,23,0.0,0.9,73,0.00,,,0.00,WUHU216HW,2014-02-15 17:49:00,
2014-02-15 12:54:00,33.8,26.0,29.80,NNE,23,0.4,0.7,73,0.00,,,0.00,WUHU216HW,2014-02-15 17:54:00,
2014-02-15 12:59:00,33.7,26.2,29.79,North,0,1.1,1.1,74,0.00,,,0.00,WUHU216HW,2014-02-15 17:59:00,
2014-02-15 13:04:00,33.5,26.0,29.78,NNE,23,0.4,1.6,74,0.00,,,0.00,WUHU216HW,2014-02-15 18:04:00,
2014-02-15 13:09:00,33.3,26.2,29.77,NNE,23,0.7,1.6,75,0.00,,,0.00,WUHU216HW,2014-02-15 18:09:00,
2014-02-15 13:14:00,32.9,26.2,29.77,NNE,23,0.9,1.6,76,0.00,,,0.00,WUHU216HW,2014-02-15 18:14:00,
2014-02-15 13:19:00,32.9,26.2,29.77,NNE,23,0.0,1.1,76,0.00,,,0.00,WUHU216HW,2014-02-15 18:19:00,
2014-02-15 13:24:00,32.9,26.2,29.77,NNE,23,0.9,1.1,76,0.00,,,0.00,WUHU216HW,2014-02-15 18:24:00,
2014-02-15 13:29:00,32.9,26.5,29.77,NNE,23,1.1,2.9,77,0.00,,,0.00,WUHU216HW,2014-02-15 18:29:00,
2014-02-15 13:34:00,32.6,26.2,29.77,NNE,23,0.9,2.9,77,0.00,,,0.00,WUHU216HW,2014-02-15 18:34:00,
2014-02-15 13:39:00,32.4,26.0,29.77,NE,45,1.1,1.8,77,0.00,,,0.00,WUHU216HW,2014-02-15 18:39:00,
2014-02-15 13:44:00,32.2,26.2,29.77,NE,45,1.3,1.3,78,0.00,,,0.00,WUHU216HW,2014-02-15 18:44:00,
2014-02-15 13:49:00,32.0,26.0,29.77,NE,45,0.4,2.0,78,0.00,,,0.00,WUHU216HW,2014-02-15 18:49:00,
2014-02-15 13:54:00,31.9,25.8,29.77,ENE,68,1.8,2.2,78,0.00,,,0.00,WUHU216HW,2014-02-15 18:54:00,
2014-02-15 13:59:00,31.7,25.7,29.77,ENE,68,1.1,2.2,78,0.00,,,0.00,WUHU216HW,2014-02-15 18:59:00,
2014-02-15 14:04:00,31.3,25.6,29.77,NNE,23,1.1,1.8,79,0.00,,,0.00,WUHU216HW,2014-02-15 19:04:00,
2014-02-15 14:09:00,31.1,25.4,29.77,NNE,23,0.7,2.0,79,0.00,,,0.00,WUHU216HW,2014-02-15 19:09:00,
2014-02-15 14:14:00,31.1,25.4,29.77,ENE,68,0.4,2.0,79,0.00,,,0.00,WUHU216HW,2014-02-15 19:14:00,
2014-02-15 14:19:00,31.0,25.6,29.77,NE,45,1.1,1.8,80,0.00,,,0.00,WUHU216HW,2014-02-15 19:19:00,
2014-02-15 14:24:00,31.0,25.6,29.77,NNE,23,0.7,1.8,80,0.00,,,0.00,WUHU216HW,2014-02-15 19:24:00,
2014-02-15 14:29:00,31.0,25.6,29.76,NNE,23,0.4,1.8,80,0.00,,,0.00,WUHU216HW,2014-02-15 19:29:00,
2014-02-15 14:34:00,31.0,25.6,29.75,NE,45,1.1,1.8,80,0.00,,,0.00,WUHU216HW,2014-02-15 19:34:00,
2014-02-15 14:39:00,30.8,25.7,29.75,NE,45,0.4,1.3,81,0.00,,,0.00,WUHU216HW,2014-02-15 19:39:00,
2014-02-15 14:44:00,30.6,25.5,29.75,ENE,68,0.4,1.6,81,0.00,,,0.00,WUHU216HW,2014-02-15 19:44:00,
2014-02-15 14:49:00,30.6,25.5,29.74,NNE,23,0.4,1.6,81,0.00,,,0.00,WUHU216HW,2014-02-15 19:49:00,
2014-02-15 14:54:00,30.6,25.7,29.74,NNE,23,0.7,1.1,82,0.00,,,0.00,WUHU216HW,2014-02-15 19:54:00,
2014-02-15 14:59:00,30.6,25.7,29.74,NE,45,0.4,1.1,82,0.00,,,0.00,WUHU216HW,2014-02-15 19:59:00,
2014-02-15 15:04:00,30.6,25.7,29.74,North,0,0.9,0.9,82,0.00,,,0.00,WUHU216HW,2014-02-15 20:04:00,
2014-02-15 15:09:00,30.8,25.9,29.74,NE,45,0.7,0.9,82,0.00,,,0.00,WUHU216HW,2014-02-15 20:09:00,
2014-02-15 15:14:00,30.6,26.1,29.74,NE,45,0.2,0.9,83,0.00,,,0.00,WUHU216HW,2014-02-15 20:14:00,
2014-02-15 15:19:00,30.6,26.1,29.74,NNE,23,0.9,1.8,83,0.00,,,0.00,WUHU216HW,2014-02-15 20:19:00,
2014-02-15 15:24:00,30.6,26.1,29.74,NNE,23,0.4,1.8,83,0.00,,,0.00,WUHU216HW,2014-02-15 20:24:00,
2014-02-15 15:29:00,30.6,26.1,29.73,NNE,23,0.0,0.9,83,0.00,,,0.00,WUHU216HW,2014-02-15 20:29:00,
2014-02-15 15:34:00,30.6,26.1,29.74,NE,45,0.4,0.7,83,0.00,,,0.00,WUHU216HW,2014-02-15 20:34:00,
2014-02-15 15:39:00,30.6,26.1,29.73,North,0,0.4,0.7,83,0.00,,,0.00,WUHU216HW,2014-02-15 20:39:00,
2014-02-15 15:44:00,30.8,26.3,29.73,NNW,338,0.2,0.7,83,0.00,,,0.00,WUHU216HW,2014-02-15 20:44:00,
2014-02-15 15:49:00,30.8,26.3,29.73,NNE,23,0.2,0.7,83,0.00,,,0.00,WUHU216HW,2014-02-15 20:49:00,
2014-02-15 15:54:00,30.8,26.6,29.72,North,0,0.0,0.7,84,0.00,,,0.00,WUHU216HW,2014-02-15 20:54:00,
2014-02-15 15:59:00,30.8,26.8,29.72,North,0,0.2,0.4,85,0.00,,,0.00,WUHU216HW,2014-02-15 20:59:00,
2014-02-15 16:04:00,30.8,26.8,29.72,West,270,0.9,0.9,85,0.00,,,0.00,WUHU216HW,2014-02-15 21:04:00,
2014-02-15 16:09:00,30.8,26.8,29.72,North,0,0.2,0.9,85,0.00,,,0.00,WUHU216HW,2014-02-15 21:09:00,
2014-02-15 16:14:00,30.8,26.8,29.71,North,0,0.4,0.9,85,0.00,,,0.00,WUHU216HW,2014-02-15 21:14:00,
2014-02-15 16:19:00,30.8,26.8,29.71,North,0,0.4,0.7,85,0.00,,,0.00,WUHU216HW,2014-02-15 21:19:00,
2014-02-15 16:24:00,30.6,26.6,29.71,North,0,0.2,0.7,85,0.00,,,0.00,WUHU216HW,2014-02-15 21:24:00,
2014-02-15 16:29:00,30.6,26.6,29.70,North,0,0.2,0.4,85,0.00,,,0.00,WUHU216HW,2014-02-15 21:29:00,
2014-02-15 16:34:00,30.6,26.6,29.70,NNE,23,0.2,0.4,85,0.00,,,0.00,WUHU216HW,2014-02-15 21:34:00,
2014-02-15 16:39:00,30.6,26.6,29.69,North,0,0.0,0.4,85,0.00,,,0.00,WUHU216HW,2014-02-15 21:39:00,
2014-02-15 16:44:00,30.6,26.9,29.69,NNW,338,0.2,0.9,86,0.00,,,0.00,WUHU216HW,2014-02-15 21:44:00,
2014-02-15 16:49:00,30.6,26.9,29.69,NNE,23,0.0,0.9,86,0.00,,,0.00,WUHU216HW,2014-02-15 21:49:00,
2014-02-15 16:54:00,30.6,26.9,29.69,North,0,0.0,0.4,86,0.00,,,0.00,WUHU216HW,2014-02-15 21:54:00,
2014-02-15 16:59:00,30.6,26.9,29.69,NNE,23,0.0,0.4,86,0.00,,,0.00,WUHU216HW,2014-02-15 21:59:00,
2014-02-15 17:04:00,30.6,26.9,29.70,North,0,0.0,0.4,86,0.00,,,0.00,WUHU216HW,2014-02-15 22:04:00,
2014-02-15 17:09:00,30.6,26.9,29.70,NE,45,0.0,0.4,86,0.00,,,0.00,WUHU216HW,2014-02-15 22:09:00,
2014-02-15 17:14:00,30.6,26.9,29.70,North,0,0.2,0.4,86,0.00,,,0.00,WUHU216HW,2014-02-15 22:14:00,
2014-02-15 17:19:00,30.6,26.9,29.70,North,0,0.0,0.4,86,0.00,,,0.00,WUHU216HW,2014-02-15 22:19:00,
2014-02-15 17:24:00,30.6,26.9,29.70,North,0,0.2,0.4,86,0.00,,,0.00,WUHU216HW,2014-02-15 22:24:00,
2014-02-15 17:29:00,30.6,26.9,29.69,North,0,0.0,0.4,86,0.00,,,0.00,WUHU216HW,2014-02-15 22:29:00,
2014-02-15 17:34:00,30.4,26.7,29.69,North,0,0.0,0.4,86,0.00,,,0.00,WUHU216HW,2014-02-15 22:34:00,
2014-02-15 17:39:00,30.4,26.7,29.70,North,0,0.0,0.4,86,0.00,,,0.00,WUHU216HW,2014-02-15 22:39:00,
2014-02-15 17:44:00,30.4,26.7,29.70,North,0,0.2,0.4,86,0.00,,,0.00,WUHU216HW,2014-02-15 22:44:00,
2014-02-15 17:49:00,30.4,27.0,29.69,North,0,0.4,0.4,87,0.00,,,0.00,WUHU216HW,2014-02-15 22:49:00,
2014-02-15 17:54:00,30.4,27.0,29.69,North,0,0.2,0.4,87,0.00,,,0.00,WUHU216HW,2014-02-15 22:54:00,
2014-02-15 17:59:00,30.4,27.0,29.69,North,0,0.4,0.7,87,0.00,,,0.00,WUHU216HW,2014-02-15 22:59:00,
2014-02-15 18:04:00,30.4,27.0,29.69,NNE,23,0.9,1.3,87,0.00,,,0.00,WUHU216HW,2014-02-15 23:04:00,
2014-02-15 18:09:00,30.4,27.4,29.68,NNE,23,0.0,1.3,88,0.00,,,0.00,WUHU216HW,2014-02-15 23:09:00,
2014-02-15 18:14:00,30.4,27.0,29.68,North,0,0.4,1.1,87,0.00,,,0.00,WUHU216HW,2014-02-15 23:14:00,
2014-02-15 18:19:00,30.4,27.0,29.67,NNE,23,0.2,0.4,87,0.00,,,0.00,WUHU216HW,2014-02-15 23:19:00,
2014-02-15 18:24:00,30.4,27.4,29.66,North,0,0.4,0.7,88,0.00,,,0.00,WUHU216HW,2014-02-15 23:24:00,
2014-02-15 18:29:00,30.4,27.4,29.66,North,0,0.4,0.7,88,0.00,,,0.00,WUHU216HW,2014-02-15 23:29:00,
2014-02-15 18:34:00,30.4,27.4,29.66,North,0,0.4,0.7,88,0.00,,,0.00,WUHU216HW,2014-02-15 23:34:00,
2014-02-15 18:39:00,30.6,27.6,29.65,North,0,0.9,0.9,88,0.00,,,0.00,WUHU216HW,2014-02-15 23:39:00,
2014-02-15 18:44:00,30.4,27.4,29.65,North,0,0.4,0.9,88,0.00,,,0.00,WUHU216HW,2014-02-15 23:44:00,
2014-02-15 18:49:00,30.6,27.6,29.65,North,0,0.0,0.9,88,0.00,,,0.00,WUHU216HW,2014-02-15 23:49:00,
2014-02-15 18:54:00,30.4,27.6,29.64,North,0,0.9,1.1,89,0.00,,,0.00,WUHU216HW,2014-02-15 23:54:00,
2014-02-15 18:59:00,30.4,27.6,29.64,North,0,0.9,1.1,89,0.00,,,0.00,WUHU216HW,2014-02-15 23:59:00,
2014-02-15 19:04:00,30.6,27.8,29.63,North,0,0.4,0.9,89,0.00,,,0.00,WUHU216HW,2014-02-16 00:04:00,
2014-02-15 19:09:00,30.6,27.8,29.63,NNE,23,0.4,0.9,89,0.00,,,0.00,WUHU216HW,2014-02-16 00:09:00,
2014-02-15 19:14:00,30.4,27.6,29.62,NE,45,0.4,1.1,89,0.00,,,0.00,WUHU216HW,2014-02-16 00:14:00,
2014-02-15 19:19:00,30.4,27.6,29.61,North,0,0.7,1.6,89,0.00,,,0.00,WUHU216HW,2014-02-16 00:19:00,
2014-02-15 19:24:00,30.4,27.6,29.61,North,0,0.4,1.6,89,0.00,,,0.00,WUHU216HW,2014-02-16 00:24:00,
2014-02-15 19:29:00,30.4,27.6,29.61,North,0,0.4,0.9,89,0.00,,,0.00,WUHU216HW,2014-02-16 00:29:00,
2014-02-15 19:34:00,30.4,27.6,29.60,NNE,23,0.2,1.1,89,0.00,,,0.00,WUHU216HW,2014-02-16 00:34:00,
2014-02-15 19:39:00,30.4,27.6,29.59,NE,45,0.4,1.1,89,0.00,,,0.00,WUHU216HW,2014-02-16 00:39:00,
2014-02-15 19:44:00,30.2,27.5,29.59,North,0,0.4,1.3,89,0.00,,,0.00,WUHU216HW,2014-02-16 00:44:00,
2014-02-15 19:49:00,30.2,27.5,29.58,North,0,1.1,1.3,89,0.00,,,0.00,WUHU216HW,2014-02-16 00:49:00,
2014-02-15 19:54:00,30.2,27.5,29.58,North,0,0.4,1.1,89,0.00,,,0.00,WUHU216HW,2014-02-16 00:54:00,
2014-02-15 19:59:00,30.2,27.5,29.58,North,0,0.7,1.8,89,0.00,,,0.00,WUHU216HW,2014-02-16 00:59:00,
2014-02-15 20:04:00,30.2,27.5,29.57,NNW,338,0.7,1.8,89,0.00,,,0.00,WUHU216HW,2014-02-16 01:04:00,
2014-02-15 20:09:00,30.2,27.5,29.57,North,0,0.0,2.2,89,0.00,,,0.00,WUHU216HW,2014-02-16 01:09:00,
2014-02-15 20:14:00,30.2,27.2,29.57,NNE,23,0.0,2.2,88,0.00,,,0.00,WUHU216HW,2014-02-16 01:14:00,
2014-02-15 20:19:00,30.1,27.0,29.56,North,0,0.4,1.8,88,0.00,,,0.00,WUHU216HW,2014-02-16 01:19:00,
2014-02-15 20:24:00,30.1,27.0,29.56,North,0,0.4,1.8,88,0.00,,,0.00,WUHU216HW,2014-02-16 01:24:00,
2014-02-15 20:29:00,30.1,27.0,29.56,North,0,0.9,1.3,88,0.00,,,0.00,WUHU216HW,2014-02-16 01:29:00,
2014-02-15 20:34:00,30.1,27.0,29.56,North,0,1.1,1.1,88,0.00,,,0.00,WUHU216HW,2014-02-16 01:34:00,
2014-02-15 20:39:00,29.9,26.8,29.56,NE,45,0.7,1.1,88,0.00,,,0.00,WUHU216HW,2014-02-16 01:39:00,
2014-02-15 20:44:00,29.9,26.8,29.56,North,0,0.4,1.8,88,0.00,,,0.00,WUHU216HW,2014-02-16 01:44:00,
2014-02-15 20:49:00,29.9,26.5,29.56,NE,45,0.7,1.8,87,0.00,,,0.00,WUHU216HW,2014-02-16 01:49:00,
2014-02-15 20:54:00,29.9,26.5,29.56,South,180,0.2,1.1,87,0.00,,,0.00,WUHU216HW,2014-02-16 01:54:00,
2014-02-15 20:59:00,29.9,26.5,29.55,North,0,0.2,1.1,87,0.00,,,0.00,WUHU216HW,2014-02-16 01:59:00,
2014-02-15 21:04:00,29.9,26.5,29.55,North,0,0.7,1.1,87,0.00,,,0.00,WUHU216HW,2014-02-16 02:04:00,
2014-02-15 21:09:00,29.7,26.3,29.54,North,0,0.4,1.8,87,0.00,,,0.00,WUHU216HW,2014-02-16 02:09:00,
2014-02-15 21:14:00,29.7,26.7,29.54,North,0,1.1,1.8,88,0.00,,,0.00,WUHU216HW,2014-02-16 02:14:00,
2014-02-15 21:19:00,29.7,26.3,29.54,NW,315,0.4,1.1,87,0.00,,,0.00,WUHU216HW,2014-02-16 02:19:00,
2014-02-15 21:24:00,29.5,26.5,29.53,NNE,23,0.4,1.1,88,0.00,,,0.00,WUHU216HW,2014-02-16 02:24:00,
2014-02-15 21:29:00,29.5,26.1,29.54,NNE,23,0.2,1.1,87,0.00,,,0.00,WUHU216HW,2014-02-16 02:29:00,
2014-02-15 21:34:00,29.5,26.5,29.54,North,0,0.4,1.6,88,0.00,,,0.00,WUHU216HW,2014-02-16 02:34:00,
2014-02-15 21:39:00,29.5,26.5,29.54,North,0,0.4,1.6,88,0.00,,,0.00,WUHU216HW,2014-02-16 02:39:00,
2014-02-15 21:44:00,29.3,26.3,29.54,NNW,338,0.4,1.3,88,0.00,,,0.00,WUHU216HW,2014-02-16 02:44:00,
2014-02-15 21:49:00,29.3,26.3,29.54,North,0,0.4,1.1,88,0.00,,,0.00,WUHU216HW,2014-02-16 02:49:00,
2014-02-15 21:54:00,29.3,26.3,29.54,WNW,293,0.9,2.0,88,0.00,,,0.00,WUHU216HW,2014-02-16 02:54:00,
2014-02-15 21:59:00,29.2,26.1,29.53,North,0,0.2,2.0,88,0.00,,,0.00,WUHU216HW,2014-02-16 02:59:00,
2014-02-15 22:04:00,29.2,26.1,29.53,NNE,23,0.4,0.9,88,0.00,,,0.00,WUHU216HW,2014-02-16 03:04:00,
2014-02-15 22:09:00,29.2,26.1,29.52,North,0,0.2,1.1,88,0.00,,,0.00,WUHU216HW,2014-02-16 03:09:00,
2014-02-15 22:14:00,29.2,26.1,29.52,North,0,0.4,1.1,88,0.00,,,0.00,WUHU216HW,2014-02-16 03:14:00,
2014-02-15 22:19:00,29.2,26.1,29.51,North,0,0.2,0.9,88,0.00,,,0.00,WUHU216HW,2014-02-16 03:19:00,
2014-02-15 22:24:00,29.0,25.9,29.51,North,0,0.7,1.3,88,0.00,,,0.00,WUHU216HW,2014-02-16 03:24:00,
2014-02-15 22:29:00,29.0,25.9,29.51,North,0,0.2,1.8,88,0.00,,,0.00,WUHU216HW,2014-02-16 03:29:00,
2014-02-15 22:34:00,29.0,25.9,29.51,NNE,23,1.1,1.8,88,0.00,,,0.00,WUHU216HW,2014-02-16 03:34:00,
2014-02-15 22:39:00,28.8,25.8,29.51,North,0,0.4,1.8,88,0.00,,,0.00,WUHU216HW,2014-02-16 03:39:00,
2014-02-15 22:44:00,28.8,25.8,29.51,North,0,0.4,1.6,88,0.00,,,0.00,WUHU216HW,2014-02-16 03:44:00,
2014-02-15 22:49:00,28.8,25.8,29.51,North,0,0.4,3.6,88,0.00,,,0.00,WUHU216HW,2014-02-16 03:49:00,
2014-02-15 22:54:00,29.0,25.9,29.51,NNE,23,0.4,3.6,88,0.00,,,0.00,WUHU216HW,2014-02-16 03:54:00,
2014-02-15 22:59:00,29.0,25.9,29.51,North,0,0.4,1.1,88,0.00,,,0.00,WUHU216HW,2014-02-16 03:59:00,
2014-02-15 23:04:00,29.0,25.9,29.51,North,0,0.0,1.3,88,0.00,,,0.00,WUHU216HW,2014-02-16 04:04:00,
2014-02-15 23:09:00,29.0,25.9,29.51,North,0,0.7,1.3,88,0.00,,,0.00,WUHU216HW,2014-02-16 04:09:00,
2014-02-15 23:14:00,29.0,25.9,29.51,North,0,0.4,1.3,88,0.00,,,0.00,WUHU216HW,2014-02-16 04:14:00,
2014-02-15 23:19:00,29.0,25.9,29.51,NNE,23,0.4,1.3,88,0.00,,,0.00,WUHU216HW,2014-02-16 04:19:00,
2014-02-15 23:24:00,29.0,25.9,29.51,North,0,0.4,1.1,88,0.00,,,0.00,WUHU216HW,2014-02-16 04:24:00,
2014-02-15 23:29:00,29.0,25.9,29.51,North,0,0.4,1.6,88,0.00,,,0.00,WUHU216HW,2014-02-16 04:29:00,
2014-02-15 23:34:00,29.0,25.9,29.51,NNW,338,1.1,1.6,88,0.00,,,0.00,WUHU216HW,2014-02-16 04:34:00,
2014-02-15 23:39:00,29.0,25.9,29.51,North,0,0.4,1.3,88,0.00,,,0.00,WUHU216HW,2014-02-16 04:39:00,
2014-02-15 23:44:00,29.2,26.1,29.50,West,270,0.4,1.1,88,0.00,,,0.00,WUHU216HW,2014-02-16 04:44:00,
2014-02-15 23:49:00,29.2,26.1,29.50,South,180,0.4,2.2,88,0.00,,,0.00,WUHU216HW,2014-02-16 04:49:00,
2014-02-15 23:54:00,29.2,26.1,29.50,North,0,0.4,2.2,88,0.00,,,0.00,WUHU216HW,2014-02-16 04:54:00,